Home > Weather > Sihanoukville > Past weeks

Flag for Cambodia Weather for the Past 2 Weeks in Sihanoukville, Cambodia

Now
77 °F

Passing clouds.


Feels Like: 79 °F
Forecast: 76 / 85 °F
Wind: 10 mph from North

Location: Phnom-Penh / Pochentong

Current Time: Feb 9, 2016 at 11:14:33 AM

Latest Report: Feb 9, 2016 at 10:30 AM


Visibility: N/A

Pressure: 29.98 "Hg

Humidity: 54%

Dew point: 59 °F

Location of SihanoukvilleLocation

Historic Weather in Sihanoukville — Graph

°F

Sihanoukville Temperature Yesterday

Maximum temperature yesterday: 82 °F (at 2:30 PM)
Minimum temperature yesterday: 64 °F (at 6:00 AM)
Average temperature yesterday: 75 °F

High & Low Weather Summary for the Past Weeks

 TemperatureHumidityPressure
High95 °F (Jan 28, 1:30 PM)100% (Feb 8, 12:00 AM)30.09 "Hg (Feb 8, 12:00 AM)
Low64 °F (Feb 8, 6:00 AM)34% (Feb 6, 2:30 PM)29.71 "Hg (Feb 5, 3:30 PM)
Average83 °F55%29.88 "Hg
* Reported Jan 25 9:00 AM — Feb 9 9:30 AM, Sihanoukville, Weather by CustomWeather, © 2016

Note: Actual official high and low records may vary slightly from our data, if they occured in-between our weather recording intervals... More about our weather records

Advertising

Sihanoukville Weather History for the Previous 24 Hours

 ConditionsComfort  
Time TempWeatherWind HumidityBarometerVisibility
9:30 AM
Tue, Feb 9
75 °FPassing clouds.12 mph57%29.98 "HgN/A
9:00 AM73 °FPassing clouds.10 mph57%29.98 "HgN/A
8:30 AM73 °FClear.10 mph53%29.95 "Hg6 mi
8:00 AM72 °FClear.9 mph57%29.95 "Hg6 mi
7:30 AM70 °FClear.6 mph64%29.95 "Hg6 mi
7:00 AM68 °FClear.6 mph64%29.92 "Hg6 mi
6:30 AM68 °FPassing clouds.7 mph60%29.92 "Hg6 mi
6:00 AM68 °FPassing clouds.8 mph60%29.92 "Hg6 mi
1:00 AM70 °FClear.5 mph60%29.92 "Hg6 mi
12:30 AM70 °FClear.3 mph60%29.92 "Hg6 mi
12:00 AM72 °FClear.5 mph57%29.92 "Hg6 mi
11:30 PM
Mon, Feb 8
72 °FClear.3 mph57%29.92 "Hg6 mi
11:00 PM72 °FClear.3 mph57%29.92 "Hg6 mi
10:30 PM73 °FClear.1 mph50%29.95 "Hg5 mi
10:00 PM73 °FClear.2 mph50%29.92 "Hg5 mi
9:30 PM75 °FClear.2 mph47%29.92 "Hg6 mi
9:00 PM75 °FClear.2 mph47%29.92 "Hg6 mi
8:30 PM77 °FClear.3 mph44%29.92 "Hg6 mi
8:00 PM77 °FClear.2 mph44%29.89 "Hg6 mi
7:30 PM77 °FClear.2 mph44%29.89 "Hg6 mi
7:00 PM79 °FClear.3 mph42%29.86 "Hg6 mi
6:30 PM79 °FClear.2 mph42%29.86 "Hg6 mi
6:00 PM81 °FClear.3 mph39%29.86 "Hg6 mi
5:30 PM81 °FPassing clouds.5 mph39%29.86 "HgN/A
5:00 PM82 °FPassing clouds.6 mph37%29.86 "HgN/A
4:30 PM82 °FPassing clouds.7 mph37%29.86 "HgN/A
4:00 PM82 °FPassing clouds.8 mph35%29.86 "HgN/A
3:30 PM82 °FPassing clouds.6 mph37%29.86 "HgN/A
3:00 PM82 °FPassing clouds.6 mph35%29.86 "HgN/A
2:30 PM82 °FSunny.8 mph35%29.86 "Hg10 mi
2:00 PM81 °FClear.5 mph37%29.89 "Hg6 mi
1:30 PM81 °FClear.9 mph37%29.92 "Hg6 mi
1:00 PM79 °FClear.9 mph39%29.92 "Hg6 mi
12:30 PM79 °FClear.13 mph39%29.95 "Hg6 mi
11:30 AM75 °FClear.15 mph41%30.01 "Hg6 mi
11:00 AM73 °FClear.14 mph44%30.01 "Hg6 mi
Weather by CustomWeather, © 2016

See weather overviewHow to use our weather pages